Satellite: ORSTED
Catalog number: 25635
Epoch time:      103050.01296597
Element set:     835 
Inclination:       96.4503 deg
RA of node:        36.1384 deg
Eccentricity:    0.0144991
Arg of perigee:   328.3727 deg
Mean anomaly:      30.8813 deg
Mean motion:   14.44848253 rev/day
Decay rate:    1.3980E-005 rev/day^2
Epoch rev:           21000
Checksum:              298

Satellite: SUNSAT
Catalog number: 25636
Epoch time:      103047.22086017
Element set:     664 
Inclination:       96.4524 deg
RA of node:        32.6766 deg
Eccentricity:    0.0149241
Arg of perigee:   343.5862 deg
Mean anomaly:      16.0528 deg
Mean motion:   14.42954554 rev/day
Decay rate:    7.4899E-006 rev/day^2
Epoch rev:           20947
Checksum:              327

Satellite: UOSAT 12
Catalog number: 25693
Epoch time:      103050.36297434
Element set:     717 
Inclination:       64.5594 deg
RA of node:         8.3551 deg
Eccentricity:    0.0020430
Arg of perigee:   316.2188 deg
Mean anomaly:      43.7295 deg
Mean motion:   14.76393434 rev/day
Decay rate:    7.3100E-006 rev/day^2
Epoch rev:           20637
Checksum:              299

Satellite: FENGYUN 1C
Catalog number: 25730
Epoch time:      103050.22009831
Element set:     770 
Inclination:       98.6338 deg
RA of node:        74.5951 deg
Eccentricity:    0.0014403
Arg of perigee:     4.7956 deg
Mean anomaly:     355.3352 deg
Mean motion:   14.11734656 rev/day
Decay rate:    5.1000E-007 rev/day^2
Epoch rev:           19472
Checksum:              284

Satellite: ASTRA 1H
Catalog number: 25785
Epoch time:      103049.00000000
Element set:     372 
Inclination:        0.0122 deg
RA of node:       319.8851 deg
Eccentricity:    0.0002995
Arg of perigee:    65.1991 deg
Mean anomaly:     141.6651 deg
Mean motion:    1.00273184 rev/day
Decay rate:    1.1600E-006 rev/day^2
Epoch rev:            1349
Checksum:              242

Satellite: TERRA
Catalog number: 25994
Epoch time:      103050.27411353
Element set:     711 
Inclination:       98.2006 deg
RA of node:       126.4871 deg
Eccentricity:    0.0000985
Arg of perigee:    64.3892 deg
Mean anomaly:     295.7408 deg
Mean motion:   14.57134280 rev/day
Decay rate:    5.6399E-006 rev/day^2
Epoch rev:           16877
Checksum:              329

Satellite: JAWSAT
Catalog number: 26061
Epoch time:      103049.85742964
Element set:     768 
Inclination:      100.2078 deg
RA of node:       106.9805 deg
Eccentricity:    0.0034660
Arg of perigee:   278.5853 deg
Mean anomaly:      81.1398 deg
Mean motion:   14.37827610 rev/day
Decay rate:    6.7699E-006 rev/day^2
Epoch rev:           16057
Checksum:              340

Satellite: OPAL
Catalog number: 26063
Epoch time:      103050.18255638
Element set:     724 
Inclination:      100.2130 deg
RA of node:       104.8749 deg
Eccentricity:    0.0036857
Arg of perigee:   285.5544 deg
Mean anomaly:      74.1564 deg
Mean motion:   14.35482296 rev/day
Decay rate:    1.9599E-006 rev/day^2
Epoch rev:           16047
Checksum:              412

Satellite: ASUSAT
Catalog number: 26065
Epoch time:      103050.55761384
Element set:     737 
Inclination:      100.2108 deg
RA of node:       105.4655 deg
Eccentricity:    0.0036938
Arg of perigee:   285.3285 deg
Mean anomaly:      74.3814 deg
Mean motion:   14.35510385 rev/day
Decay rate:    2.3200E-006 rev/day^2
Epoch rev:           16052
Checksum:              281

Satellite: GOES 11
Catalog number: 26352
Epoch time:      103049.53212903
Element set:     28 
Inclination:        0.1392 deg
RA of node:       103.7245 deg
Eccentricity:    0.0003457
Arg of perigee:   224.9109 deg
Mean anomaly:     257.5849 deg
Mean motion:    1.00265533 rev/day
Decay rate:   -3.7999E-007 rev/day^2
Epoch rev:            1023
Checksum:              280

Satellite: EUTELSAT W4
Catalog number: 26369
Epoch time:      103049.96195201
Element set:     353 
Inclination:        0.0345 deg
RA of node:       349.9386 deg
Eccentricity:    0.0003063
Arg of perigee:   332.0141 deg
Mean anomaly:     208.9102 deg
Mean motion:    1.00271808 rev/day
Decay rate:    1.5099E-006 rev/day^2
Epoch rev:            1005
Checksum:              264

Satellite: FENGYUN 2B
Catalog number: 26382
Epoch time:      103048.60410181
Element set:     796 
Inclination:        0.5757 deg
RA of node:       287.7861 deg
Eccentricity:    0.0001383
Arg of perigee:   219.9433 deg
Mean anomaly:     321.3092 deg
Mean motion:    1.00276927 rev/day
Decay rate:   -3.3300E-006 rev/day^2
Epoch rev:             970
Checksum:              285

Satellite: EUTELSAT W1
Catalog number: 26487
Epoch time:      103049.87196976
Element set:     357 
Inclination:        0.0160 deg
RA of node:       269.8498 deg
Eccentricity:    0.0003911
Arg of perigee:    57.9999 deg
Mean anomaly:     144.4206 deg
Mean motion:    1.00274574 rev/day
Decay rate:    6.2999E-007 rev/day^2
Epoch rev:             902
Checksum:              340

Satellite: ASTRA 2B
Catalog number: 26494
Epoch time:      103049.00000000
Element set:     255 
Inclination:        0.0178 deg
RA of node:       354.5658 deg
Eccentricity:    0.0005000
Arg of perigee:   302.8402 deg
Mean anomaly:     238.2911 deg
Mean motion:    1.00276704 rev/day
Decay rate:    1.4600E-006 rev/day^2
Epoch rev:             891
Checksum:              228

Satellite: NOAA 16
Catalog number: 26536
Epoch time:      103049.86534425
Element set:     212 
Inclination:       98.9028 deg
RA of node:       358.1462 deg
Eccentricity:    0.0009975
Arg of perigee:   308.4939 deg
Mean anomaly:      51.5337 deg
Mean motion:   14.11903835 rev/day
Decay rate:    6.9999E-008 rev/day^2
Epoch rev:           12419
Checksum:              460

Satellite: SAUDISAT 1A
Catalog number: 26545
Epoch time:      103048.80198816
Element set:     413 
Inclination:       64.5593 deg
RA of node:        34.2792 deg
Eccentricity:    0.0052222
Arg of perigee:   238.8375 deg
Mean anomaly:     120.7602 deg
Mean motion:   14.78985194 rev/day
Decay rate:    1.6140E-005 rev/day^2
Epoch rev:           12910
Checksum:              308

Satellite: UNISAT
Catalog number: 26547
Epoch time:      103049.19427614
Element set:     432 
Inclination:       64.5573 deg
RA of node:        35.3085 deg
Eccentricity:    0.0059321
Arg of perigee:   240.9626 deg
Mean anomaly:     118.5487 deg
Mean motion:   14.79755787 rev/day
Decay rate:    2.6989E-005 rev/day^2
Epoch rev:           12913
Checksum:              343

Satellite: TIUNGSAT 1
Catalog number: 26548
Epoch time:      103050.04093145
Element set:     417 
Inclination:       64.5581 deg
RA of node:        23.3546 deg
Eccentricity:    0.0045278
Arg of perigee:   238.0922 deg
Mean anomaly:     121.5724 deg
Mean motion:   14.81278907 rev/day
Decay rate:    1.7540E-005 rev/day^2
Epoch rev:           12943
Checksum:              294

Satellite: SAUDISAT 1B
Catalog number: 26549
Epoch time:      103050.46150439
Element set:     696 
Inclination:       64.5512 deg
RA of node:        33.2956 deg
Eccentricity:    0.0056463
Arg of perigee:   238.8778 deg
Mean anomaly:     120.6775 deg
Mean motion:   14.77926519 rev/day
Decay rate:    1.4219E-005 rev/day^2
Epoch rev:           12927
Checksum:              336

Satellite: AMSAT OSCAR 40
Catalog number: 26609
Epoch time:      103046.24037137
Element set:     311 
Inclination:        8.0800 deg
RA of node:        64.6767 deg
Eccentricity:    0.7942000
Arg of perigee:   144.0329 deg
Mean anomaly:     312.8612 deg
Mean motion:    1.25596569 rev/day
Decay rate:   -1.1800E-006 rev/day^2
Epoch rev:            1054
Checksum:              271

Satellite: GOES 12
Catalog number: 26871
Epoch time:      103050.45925469
Element set:     826 
Inclination:        0.3224 deg
RA of node:       276.7505 deg
Eccentricity:    0.0003335
Arg of perigee:     8.5884 deg
Mean anomaly:     294.7909 deg
Mean motion:    1.00361482 rev/day
Decay rate:   -1.7400E-006 rev/day^2
Epoch rev:             584
Checksum:              295

Satellite: PCSAT
Catalog number: 26931
Epoch time:      103050.15506298
Element set:     405 
Inclination:       67.0473 deg
RA of node:       254.1055 deg
Eccentricity:    0.0005014
Arg of perigee:   266.3831 deg
Mean anomaly:      93.6696 deg
Mean motion:   14.29116142 rev/day
Decay rate:    2.0099E-006 rev/day^2
Epoch rev:            7243
Checksum:              283

Satellite: SAPPHIRE
Catalog number: 26932
Epoch time:      103050.55288746
Element set:     400 
Inclination:       67.0539 deg
RA of node:       252.7858 deg
Eccentricity:    0.0004840
Arg of perigee:   242.0659 deg
Mean anomaly:     117.9953 deg
Mean motion:   14.29295534 rev/day
Decay rate:    1.7099E-006 rev/day^2
Epoch rev:            7251
Checksum:              441

Satellite: ENVISAT
Catalog number: 27386
Epoch time:      103050.52311127
Element set:     953 
Inclination:       98.5442 deg
RA of node:       119.0538 deg
Eccentricity:    0.0000848
Arg of perigee:    95.7656 deg
Mean anomaly:     264.3626 deg
Mean motion:   14.32241543 rev/day
Decay rate:   -6.5099E-006 rev/day^2
Epoch rev:            5088
Checksum:              316

Satellite: IDEFIX/ARIANE 
Catalog number: 27422
Epoch time:      103049.88269962
Element set:     236 
Inclination:       98.6946 deg
RA of node:       129.0831 deg
Eccentricity:    0.0013094
Arg of perigee:   146.1865 deg
Mean anomaly:     214.0151 deg
Mean motion:   14.27971082 rev/day
Decay rate:    2.9200E-006 rev/day^2
Epoch rev:            4150
Checksum:              306

